Time,TemperatureF,DewpointF,PressureIn,WindDirection,WindDirectionDegrees,WindSpeedMPH,WindSpeedGustMPH,Humidity,HourlyPrecipIn,Conditions,Clouds,dailyrainin,SoftwareType,DateUTC
2013-07-30 00:01:00,63.5,60.8,30.21,ENE,68,0.0,0.0,91,0.00,,---,0.00,VWS V14.00,2013-07-30 04:01:00,
2013-07-30 00:02:00,63.5,60.8,30.21,ENE,68,0.0,0.0,91,0.00,,---,0.00,VWS V14.00,2013-07-30 04:02:00,
2013-07-30 00:07:00,63.3,60.6,30.20,ENE,68,0.0,0.0,91,0.00,,---,0.00,VWS V14.00,2013-07-30 04:07:00,
2013-07-30 00:12:00,63.1,60.4,30.20,ENE,68,0.0,0.0,91,0.00,,---,0.00,VWS V14.00,2013-07-30 04:12:00,
2013-07-30 00:17:00,63.1,60.4,30.20,ENE,68,0.0,0.0,91,0.00,,---,0.00,VWS V14.00,2013-07-30 04:17:00,
2013-07-30 00:22:00,62.9,60.5,30.20,ENE,68,0.0,0.0,92,0.00,,---,0.00,VWS V14.00,2013-07-30 04:22:00,
2013-07-30 00:27:00,62.7,60.3,30.20,ENE,68,0.0,0.0,92,0.00,,---,0.00,VWS V14.00,2013-07-30 04:27:00,
2013-07-30 00:32:00,62.7,60.3,30.20,ENE,68,0.0,0.0,92,0.00,,---,0.00,VWS V14.00,2013-07-30 04:32:00,
2013-07-30 00:37:00,62.6,60.5,30.20,ENE,68,0.0,0.0,93,0.00,,---,0.00,VWS V14.00,2013-07-30 04:37:00,
2013-07-30 00:42:00,62.6,60.5,30.21,ENE,68,0.0,0.0,93,0.00,,---,0.00,VWS V14.00,2013-07-30 04:42:00,
2013-07-30 00:47:00,62.6,60.5,30.21,ENE,68,0.0,0.0,93,0.00,,---,0.00,VWS V14.00,2013-07-30 04:47:00,
2013-07-30 00:52:00,62.7,60.7,30.21,ENE,68,0.0,0.0,93,0.00,,---,0.00,VWS V14.00,2013-07-30 04:52:00,
2013-07-30 00:57:00,62.7,60.7,30.20,ENE,68,0.0,0.0,93,0.00,,---,0.00,VWS V14.00,2013-07-30 04:57:00,
2013-07-30 01:02:00,62.7,60.7,30.20,ENE,68,0.0,0.0,93,0.00,,---,0.00,VWS V14.00,2013-07-30 05:02:00,
2013-07-30 01:07:00,62.6,60.5,30.20,ENE,68,0.0,0.0,93,0.00,,---,0.00,VWS V14.00,2013-07-30 05:07:00,
2013-07-30 01:12:00,62.6,60.5,30.21,ENE,68,0.0,0.0,93,0.00,,---,0.00,VWS V14.00,2013-07-30 05:12:00,
2013-07-30 01:18:00,62.4,60.3,30.21,ENE,68,0.0,0.0,93,0.00,,---,0.00,VWS V14.00,2013-07-30 05:18:00,
2013-07-30 01:23:00,62.4,60.7,30.20,ENE,68,0.0,0.0,94,0.00,,---,0.00,VWS V14.00,2013-07-30 05:23:00,
2013-07-30 01:28:00,62.2,60.5,30.20,ENE,68,0.0,0.0,94,0.00,,---,0.00,VWS V14.00,2013-07-30 05:28:00,
2013-07-30 01:33:00,62.2,60.5,30.20,ENE,68,0.0,0.0,94,0.00,,---,0.00,VWS V14.00,2013-07-30 05:33:00,
2013-07-30 01:38:00,62.0,60.3,30.20,ENE,68,0.0,0.0,94,0.00,,---,0.00,VWS V14.00,2013-07-30 05:38:00,
2013-07-30 01:43:00,61.8,60.1,30.20,ENE,68,0.0,0.0,94,0.00,,---,0.00,VWS V14.00,2013-07-30 05:43:00,
2013-07-30 01:48:00,61.8,60.1,30.20,ENE,68,0.0,0.0,94,0.00,,---,0.00,VWS V14.00,2013-07-30 05:48:00,
2013-07-30 01:53:00,61.8,60.1,30.20,ENE,68,0.0,0.0,94,0.00,,---,0.00,VWS V14.00,2013-07-30 05:53:00,
2013-07-30 01:58:00,61.7,60.0,30.20,ENE,68,0.0,0.0,94,0.00,,---,0.00,VWS V14.00,2013-07-30 05:58:00,
2013-07-30 02:03:00,61.5,59.8,30.19,ENE,68,0.0,0.0,94,0.00,,---,0.00,VWS V14.00,2013-07-30 06:03:00,
2013-07-30 02:08:00,61.5,60.1,30.19,ENE,68,0.0,0.0,95,0.00,,---,0.00,VWS V14.00,2013-07-30 06:08:00,
2013-07-30 02:13:00,61.5,60.1,30.20,ENE,68,0.0,0.0,95,0.00,,---,0.00,VWS V14.00,2013-07-30 06:13:00,
2013-07-30 02:18:00,61.3,59.9,30.19,ENE,68,0.0,0.0,95,0.00,,---,0.00,VWS V14.00,2013-07-30 06:18:00,
2013-07-30 02:23:00,61.3,59.9,30.20,ENE,68,0.0,0.0,95,0.00,,---,0.00,VWS V14.00,2013-07-30 06:23:00,
2013-07-30 02:28:00,61.1,59.7,30.20,ENE,68,0.0,0.0,95,0.00,,---,0.00,VWS V14.00,2013-07-30 06:28:00,
2013-07-30 02:33:00,61.1,59.7,30.19,ENE,68,0.0,0.0,95,0.00,,---,0.00,VWS V14.00,2013-07-30 06:33:00,
2013-07-30 02:38:00,60.9,59.5,30.20,ENE,68,0.0,0.0,95,0.00,,---,0.00,VWS V14.00,2013-07-30 06:38:00,
2013-07-30 02:43:00,60.9,59.8,30.20,ENE,68,0.0,0.0,96,0.00,,---,0.00,VWS V14.00,2013-07-30 06:43:00,
2013-07-30 02:48:00,60.9,59.8,30.20,ENE,68,0.0,0.0,96,0.00,,---,0.00,VWS V14.00,2013-07-30 06:48:00,
2013-07-30 02:53:00,60.9,59.8,30.19,ENE,68,0.0,0.0,96,0.00,,---,0.00,VWS V14.00,2013-07-30 06:53:00,
2013-07-30 02:58:00,60.9,59.8,30.19,ENE,68,0.0,0.0,96,0.00,,---,0.00,VWS V14.00,2013-07-30 06:58:00,
2013-07-30 03:03:00,60.9,59.8,30.20,ENE,68,0.0,0.0,96,0.00,,---,0.00,VWS V14.00,2013-07-30 07:03:00,
2013-07-30 03:08:00,60.6,59.5,30.19,ENE,68,0.0,0.0,96,0.00,,---,0.00,VWS V14.00,2013-07-30 07:08:00,
2013-07-30 03:13:00,60.6,59.5,30.19,ENE,68,0.0,0.0,96,0.00,,---,0.00,VWS V14.00,2013-07-30 07:13:00,
2013-07-30 03:18:00,60.6,59.5,30.19,ENE,68,0.0,0.0,96,0.00,,---,0.00,VWS V14.00,2013-07-30 07:18:00,
2013-07-30 03:23:00,60.4,59.3,30.19,ENE,68,0.0,0.0,96,0.00,,---,0.00,VWS V14.00,2013-07-30 07:23:00,
2013-07-30 03:28:00,60.4,59.3,30.19,ENE,68,0.0,0.0,96,0.00,,---,0.00,VWS V14.00,2013-07-30 07:28:00,
2013-07-30 03:33:00,60.4,59.3,30.19,ENE,68,0.0,0.0,96,0.00,,---,0.00,VWS V14.00,2013-07-30 07:33:00,
2013-07-30 03:38:00,60.4,59.3,30.19,ENE,68,0.0,0.0,96,0.00,,---,0.00,VWS V14.00,2013-07-30 07:38:00,
2013-07-30 03:43:00,60.0,58.9,30.19,ENE,68,0.0,0.0,96,0.00,,---,0.00,VWS V14.00,2013-07-30 07:43:00,
2013-07-30 03:48:00,60.0,59.2,30.19,ENE,68,0.0,0.0,97,0.00,,---,0.00,VWS V14.00,2013-07-30 07:48:00,
2013-07-30 03:53:00,60.0,59.2,30.19,ENE,68,0.0,0.0,97,0.00,,---,0.00,VWS V14.00,2013-07-30 07:53:00,
2013-07-30 03:58:00,60.0,59.2,30.19,ENE,68,0.0,0.0,97,0.00,,---,0.00,VWS V14.00,2013-07-30 07:58:00,
2013-07-30 04:03:00,59.9,59.0,30.19,ENE,68,0.0,0.0,97,0.00,,---,0.00,VWS V14.00,2013-07-30 08:03:00,
2013-07-30 04:08:00,59.9,59.0,30.19,ENE,68,0.0,0.0,97,0.00,,---,0.00,VWS V14.00,2013-07-30 08:08:00,
2013-07-30 04:13:00,59.9,59.0,30.19,ENE,68,0.0,0.0,97,0.00,,---,0.00,VWS V14.00,2013-07-30 08:13:00,
2013-07-30 04:18:00,59.7,58.8,30.20,ENE,68,0.0,0.0,97,0.00,,---,0.00,VWS V14.00,2013-07-30 08:18:00,
2013-07-30 04:23:00,59.5,58.7,30.20,ENE,68,0.0,0.0,97,0.00,,---,0.00,VWS V14.00,2013-07-30 08:23:00,
2013-07-30 04:28:00,59.5,58.7,30.20,ENE,68,0.0,0.0,97,0.00,,---,0.00,VWS V14.00,2013-07-30 08:28:00,
2013-07-30 04:33:00,59.3,58.5,30.20,ENE,68,0.0,0.0,97,0.00,,---,0.00,VWS V14.00,2013-07-30 08:33:00,
2013-07-30 04:38:00,59.3,58.5,30.20,ENE,68,0.0,0.0,97,0.00,,---,0.00,VWS V14.00,2013-07-30 08:38:00,
2013-07-30 04:43:00,59.1,58.2,30.20,ENE,68,0.0,0.0,97,0.00,,---,0.00,VWS V14.00,2013-07-30 08:43:00,
2013-07-30 04:48:00,58.8,58.0,30.20,ENE,68,0.0,0.0,97,0.00,,---,0.00,VWS V14.00,2013-07-30 08:48:00,
2013-07-30 04:53:00,58.8,58.2,30.20,ENE,68,0.0,0.0,98,0.00,,---,0.00,VWS V14.00,2013-07-30 08:53:00,
2013-07-30 04:58:00,58.8,58.2,30.20,ENE,68,0.0,0.0,98,0.00,,---,0.00,VWS V14.00,2013-07-30 08:58:00,
2013-07-30 05:03:00,58.8,58.2,30.20,ENE,68,0.0,0.0,98,0.00,,---,0.00,VWS V14.00,2013-07-30 09:03:00,
2013-07-30 05:08:00,58.8,58.2,30.20,ENE,68,0.0,0.0,98,0.00,,---,0.00,VWS V14.00,2013-07-30 09:08:00,
2013-07-30 05:13:00,58.8,58.2,30.20,ENE,68,0.0,0.0,98,0.00,,---,0.00,VWS V14.00,2013-07-30 09:13:00,
2013-07-30 05:18:00,58.8,58.2,30.20,ENE,68,0.0,0.0,98,0.00,,---,0.00,VWS V14.00,2013-07-30 09:18:00,
2013-07-30 05:23:00,58.8,58.2,30.20,ENE,68,0.0,0.0,98,0.00,,---,0.00,VWS V14.00,2013-07-30 09:23:00,
2013-07-30 05:28:00,58.8,58.2,30.20,ENE,68,0.0,0.0,98,0.00,,---,0.00,VWS V14.00,2013-07-30 09:28:00,
2013-07-30 05:33:00,58.8,58.2,30.20,ENE,68,0.0,0.0,98,0.00,,---,0.00,VWS V14.00,2013-07-30 09:33:00,
2013-07-30 05:38:00,58.8,58.2,30.20,ENE,68,0.0,0.0,98,0.00,,---,0.00,VWS V14.00,2013-07-30 09:38:00,
2013-07-30 05:43:00,58.6,58.3,30.21,ENE,68,0.0,0.0,99,0.00,,---,0.00,VWS V14.00,2013-07-30 09:43:00,
2013-07-30 05:48:00,58.6,58.3,30.21,ENE,68,0.0,0.0,99,0.00,,---,0.00,VWS V14.00,2013-07-30 09:48:00,
2013-07-30 05:53:00,58.6,58.3,30.21,ENE,68,0.0,0.0,99,0.00,,---,0.00,VWS V14.00,2013-07-30 09:53:00,
2013-07-30 05:58:00,58.6,58.3,30.21,ENE,68,0.0,0.0,99,0.00,,---,0.00,VWS V14.00,2013-07-30 09:58:00,
2013-07-30 06:03:00,58.6,58.3,30.21,ENE,68,0.0,0.0,99,0.00,,---,0.00,VWS V14.00,2013-07-30 10:03:00,
2013-07-30 06:08:00,58.6,58.3,30.21,ENE,68,0.0,0.0,99,0.00,,---,0.00,VWS V14.00,2013-07-30 10:08:00,
2013-07-30 06:14:00,58.8,58.5,30.22,ENE,68,0.0,0.0,99,0.00,,---,0.00,VWS V14.00,2013-07-30 10:14:00,
2013-07-30 06:19:00,58.8,58.5,30.22,ENE,68,0.0,0.0,99,0.00,,---,0.00,VWS V14.00,2013-07-30 10:19:00,
2013-07-30 06:24:00,58.6,58.3,30.21,ENE,68,0.0,0.0,99,0.00,,---,0.00,VWS V14.00,2013-07-30 10:24:00,
2013-07-30 06:29:00,58.6,58.3,30.21,ENE,68,0.0,0.0,99,0.00,,---,0.00,VWS V14.00,2013-07-30 10:29:00,
2013-07-30 06:34:00,58.6,58.3,30.22,ENE,68,0.0,0.0,99,0.00,,---,0.00,VWS V14.00,2013-07-30 10:34:00,
2013-07-30 06:39:00,58.4,58.1,30.22,ENE,68,0.0,0.0,99,0.00,,---,0.00,VWS V14.00,2013-07-30 10:39:00,
2013-07-30 06:44:00,58.4,58.1,30.22,ENE,68,0.0,0.0,99,0.00,,---,0.00,VWS V14.00,2013-07-30 10:44:00,
2013-07-30 06:49:00,58.2,57.9,30.22,ENE,68,0.0,0.0,99,0.00,,---,0.00,VWS V14.00,2013-07-30 10:49:00,
2013-07-30 06:54:00,58.2,57.9,30.22,ENE,68,0.0,0.0,99,0.00,,---,0.00,VWS V14.00,2013-07-30 10:54:00,
2013-07-30 06:59:00,58.2,57.9,30.22,ENE,68,0.0,0.0,99,0.00,,---,0.00,VWS V14.00,2013-07-30 10:59:00,
2013-07-30 07:04:00,58.2,57.9,30.22,ENE,68,0.0,0.0,99,0.00,,---,0.00,VWS V14.00,2013-07-30 11:04:00,
2013-07-30 07:09:00,58.1,57.8,30.23,ENE,68,0.0,0.0,99,0.00,,---,0.00,VWS V14.00,2013-07-30 11:09:00,
2013-07-30 07:14:00,58.4,58.1,30.22,ENE,68,0.0,0.0,99,0.00,,---,0.00,VWS V14.00,2013-07-30 11:14:00,
2013-07-30 07:19:00,58.4,58.1,30.23,ENE,68,0.0,0.0,99,0.00,,---,0.00,VWS V14.00,2013-07-30 11:19:00,
2013-07-30 07:24:00,58.4,58.1,30.22,ENE,68,0.0,0.0,99,0.00,,---,0.00,VWS V14.00,2013-07-30 11:24:00,
2013-07-30 07:29:00,58.6,58.3,30.23,ENE,68,0.0,0.0,99,0.00,,---,0.00,VWS V14.00,2013-07-30 11:29:00,
2013-07-30 07:34:00,58.6,58.6,30.23,ENE,68,0.0,0.0,100,0.00,,---,0.00,VWS V14.00,2013-07-30 11:34:00,
2013-07-30 07:39:00,58.8,58.8,30.23,ENE,68,0.0,0.0,100,0.00,,---,0.00,VWS V14.00,2013-07-30 11:39:00,
2013-07-30 07:44:00,58.8,58.8,30.23,ENE,68,0.0,0.0,100,0.00,,---,0.00,VWS V14.00,2013-07-30 11:44:00,
2013-07-30 07:49:00,59.1,59.1,30.23,ENE,68,0.0,0.0,100,0.00,,---,0.00,VWS V14.00,2013-07-30 11:49:00,
2013-07-30 07:54:00,59.5,59.5,30.23,ENE,68,0.0,0.0,100,0.00,,---,0.00,VWS V14.00,2013-07-30 11:54:00,
2013-07-30 07:59:00,60.0,60.0,30.23,ENE,68,0.0,0.0,100,0.00,,---,0.00,VWS V14.00,2013-07-30 11:59:00,
2013-07-30 08:04:00,60.4,60.4,30.23,ENE,68,0.0,0.0,100,0.00,,---,0.00,VWS V14.00,2013-07-30 12:04:00,
2013-07-30 08:09:00,60.6,60.6,30.23,ENE,68,0.0,0.0,100,0.00,,---,0.00,VWS V14.00,2013-07-30 12:09:00,
2013-07-30 08:14:00,61.3,61.3,30.23,ENE,68,0.0,0.0,100,0.00,,---,0.00,VWS V14.00,2013-07-30 12:14:00,
2013-07-30 08:19:00,61.8,61.8,30.24,ENE,68,0.0,0.0,100,0.00,,---,0.00,VWS V14.00,2013-07-30 12:19:00,
2013-07-30 08:24:00,62.4,62.4,30.24,ENE,68,0.0,0.0,100,0.00,,---,0.00,VWS V14.00,2013-07-30 12:24:00,
2013-07-30 08:29:00,62.7,62.7,30.24,ENE,68,0.0,0.0,100,0.00,,---,0.00,VWS V14.00,2013-07-30 12:29:00,
2013-07-30 08:34:00,63.3,63.3,30.24,ENE,68,0.0,0.0,100,0.00,,---,0.00,VWS V14.00,2013-07-30 12:34:00,
2013-07-30 08:39:00,64.0,63.7,30.24,ENE,68,0.0,0.0,99,0.00,,---,0.00,VWS V14.00,2013-07-30 12:39:00,
2013-07-30 08:44:00,64.5,64.2,30.24,ENE,68,0.0,0.0,99,0.00,,---,0.00,VWS V14.00,2013-07-30 12:44:00,
2013-07-30 08:49:00,65.1,64.5,30.25,ENE,68,0.0,0.0,98,0.00,,---,0.00,VWS V14.00,2013-07-30 12:49:00,
2013-07-30 08:54:00,66.0,64.5,30.24,ENE,68,0.0,0.0,95,0.00,,---,0.00,VWS V14.00,2013-07-30 12:54:00,
2013-07-30 08:59:00,66.5,65.0,30.24,ENE,68,0.0,0.0,95,0.00,,---,0.00,VWS V14.00,2013-07-30 12:59:00,
2013-07-30 09:04:00,67.2,66.0,30.24,ENE,68,0.0,0.0,96,0.00,,---,0.00,VWS V14.00,2013-07-30 13:04:00,
2013-07-30 09:09:00,68.7,67.2,30.25,ENE,68,0.0,0.0,95,0.00,,---,0.00,VWS V14.00,2013-07-30 13:09:00,
2013-07-30 09:15:00,69.4,67.6,30.24,ENE,68,0.0,0.0,94,0.00,,---,0.00,VWS V14.00,2013-07-30 13:15:00,
2013-07-30 09:20:00,70.3,67.9,30.25,South,180,0.0,0.0,92,0.00,,---,0.00,VWS V14.00,2013-07-30 13:20:00,
2013-07-30 09:25:00,71.2,68.1,30.25,South,180,0.0,0.0,90,0.00,,---,0.00,VWS V14.00,2013-07-30 13:25:00,
2013-07-30 09:30:00,71.7,68.6,30.25,South,180,0.0,0.0,90,0.00,,---,0.00,VWS V14.00,2013-07-30 13:30:00,
2013-07-30 09:35:00,72.5,69.1,30.24,South,180,0.0,0.0,89,0.00,,---,0.00,VWS V14.00,2013-07-30 13:35:00,
2013-07-30 09:40:00,73.2,69.1,30.25,East,90,0.0,0.0,87,0.00,,---,0.00,VWS V14.00,2013-07-30 13:40:00,
2013-07-30 09:45:00,73.9,69.8,30.25,South,180,0.0,0.0,87,0.00,,---,0.00,VWS V14.00,2013-07-30 13:45:00,
2013-07-30 09:50:00,74.8,70.3,30.25,ENE,68,0.0,0.0,86,0.00,,---,0.00,VWS V14.00,2013-07-30 13:50:00,
2013-07-30 09:55:00,75.0,69.8,30.25,North,0,0.0,0.0,84,0.00,,---,0.00,VWS V14.00,2013-07-30 13:55:00,
2013-07-30 10:00:00,75.3,69.4,30.25,ENE,68,0.0,0.0,82,0.00,,---,0.00,VWS V14.00,2013-07-30 14:00:00,
2013-07-30 10:05:00,75.3,68.7,30.25,NE,45,0.0,0.0,80,0.00,,---,0.00,VWS V14.00,2013-07-30 14:05:00,
2013-07-30 10:10:00,75.3,69.1,30.25,South,180,0.0,0.0,81,0.00,,---,0.00,VWS V14.00,2013-07-30 14:10:00,
2013-07-30 10:16:00,76.2,69.9,30.24,East,90,0.0,0.0,81,0.00,,---,0.00,VWS V14.00,2013-07-30 14:16:00,
2013-07-30 10:21:00,76.8,70.5,30.24,West,270,1.3,1.3,81,0.00,,---,0.00,VWS V14.00,2013-07-30 14:21:00,
2013-07-30 10:26:00,77.1,70.8,30.24,WSW,248,0.0,1.3,81,0.00,,---,0.00,VWS V14.00,2013-07-30 14:26:00,
2013-07-30 10:31:00,77.7,71.0,30.24,West,270,0.0,0.0,80,0.00,,---,0.00,VWS V14.00,2013-07-30 14:31:00,
2013-07-30 10:36:00,77.9,70.9,30.24,South,180,0.0,0.0,79,0.00,,---,0.00,VWS V14.00,2013-07-30 14:36:00,
2013-07-30 10:41:00,77.9,70.9,30.24,SW,225,2.6,2.6,79,0.00,,---,0.00,VWS V14.00,2013-07-30 14:41:00,
2013-07-30 10:46:00,78.4,71.3,30.23,South,180,0.0,2.6,79,0.00,,---,0.00,VWS V14.00,2013-07-30 14:46:00,
2013-07-30 10:51:00,78.6,71.6,30.23,WSW,248,0.0,0.0,79,0.00,,---,0.00,VWS V14.00,2013-07-30 14:51:00,
2013-07-30 10:56:00,78.8,71.4,30.23,SSE,158,0.0,1.1,78,0.00,,---,0.00,VWS V14.00,2013-07-30 14:56:00,
2013-07-30 11:01:00,79.5,72.0,30.23,SE,135,0.0,0.0,78,0.00,,---,0.00,VWS V14.00,2013-07-30 15:01:00,
2013-07-30 11:06:00,79.7,72.2,30.23,South,180,2.9,2.9,78,0.00,,---,0.00,VWS V14.00,2013-07-30 15:06:00,
2013-07-30 11:11:00,80.0,72.5,30.23,WSW,248,0.0,0.0,78,0.00,,---,0.00,VWS V14.00,2013-07-30 15:11:00,
2013-07-30 11:16:00,80.4,73.3,30.23,SSW,202,0.0,0.0,79,0.00,,---,0.00,VWS V14.00,2013-07-30 15:16:00,
2013-07-30 11:21:00,80.9,73.0,30.23,NNE,22,0.0,0.0,77,0.00,,---,0.00,VWS V14.00,2013-07-30 15:21:00,
2013-07-30 11:26:00,80.9,72.6,30.23,SSE,158,0.0,0.0,76,0.00,,---,0.00,VWS V14.00,2013-07-30 15:26:00,
2013-07-30 11:31:00,81.3,72.6,30.23,SSW,202,0.0,0.0,75,0.00,,---,0.00,VWS V14.00,2013-07-30 15:31:00,
2013-07-30 11:36:00,81.6,73.3,30.23,South,180,0.0,5.8,76,0.00,,---,0.00,VWS V14.00,2013-07-30 15:36:00,
2013-07-30 11:41:00,82.2,73.5,30.23,WNW,292,2.2,2.2,75,0.00,,---,0.00,VWS V14.00,2013-07-30 15:41:00,
2013-07-30 11:46:00,82.7,74.0,30.23,West,270,0.0,4.9,75,0.00,,---,0.00,VWS V14.00,2013-07-30 15:46:00,
2013-07-30 11:51:00,82.5,73.4,30.23,ENE,68,0.0,0.0,74,0.00,,---,0.00,VWS V14.00,2013-07-30 15:51:00,
2013-07-30 12:04:00,81.1,72.4,30.23,WNW,292,0.0,0.0,75,0.00,,---,0.00,VWS V14.00,2013-07-30 16:04:00,
2013-07-30 12:09:00,80.7,71.7,30.23,SSW,202,0.0,0.0,74,0.00,,---,0.00,VWS V14.00,2013-07-30 16:09:00,
2013-07-30 12:14:00,81.1,72.8,30.23,WSW,248,0.0,0.0,76,0.00,,---,0.00,VWS V14.00,2013-07-30 16:14:00,
2013-07-30 12:19:00,81.5,72.8,30.22,WSW,248,0.0,0.0,75,0.00,,---,0.00,VWS V14.00,2013-07-30 16:19:00,
2013-07-30 12:24:00,81.6,72.9,30.22,SSE,158,0.0,1.5,75,0.00,,---,0.00,VWS V14.00,2013-07-30 16:24:00,
2013-07-30 12:29:00,82.0,73.3,30.22,NNE,22,0.0,1.5,75,0.00,,---,0.00,VWS V14.00,2013-07-30 16:29:00,
2013-07-30 12:34:00,82.0,72.9,30.22,NNE,22,0.0,2.6,74,0.00,,---,0.00,VWS V14.00,2013-07-30 16:34:00,
2013-07-30 12:39:00,81.6,72.9,30.22,East,90,0.0,2.6,75,0.00,,---,0.00,VWS V14.00,2013-07-30 16:39:00,
2013-07-30 12:44:00,81.3,73.0,30.22,SSE,158,0.0,0.0,76,0.00,,---,0.00,VWS V14.00,2013-07-30 16:44:00,
2013-07-30 12:49:00,82.2,74.3,30.22,SW,225,0.0,0.0,77,0.00,,---,0.00,VWS V14.00,2013-07-30 16:49:00,
2013-07-30 12:54:00,83.1,74.8,30.22,South,180,0.0,0.0,76,0.00,,---,0.00,VWS V14.00,2013-07-30 16:54:00,
2013-07-30 12:59:00,83.3,74.6,30.22,SSW,202,0.0,0.0,75,0.00,,---,0.00,VWS V14.00,2013-07-30 16:59:00,
2013-07-30 13:04:00,83.6,74.8,30.22,SSE,158,0.0,0.0,75,0.00,,---,0.00,VWS V14.00,2013-07-30 17:04:00,
2013-07-30 13:09:00,83.8,74.6,30.22,North,0,0.0,0.0,74,0.00,,---,0.00,VWS V14.00,2013-07-30 17:09:00,
2013-07-30 13:14:00,83.8,74.6,30.21,SW,225,0.0,0.0,74,0.00,,---,0.00,VWS V14.00,2013-07-30 17:14:00,
2013-07-30 13:19:00,84.0,74.8,30.21,ESE,112,0.0,0.0,74,0.00,,---,0.00,VWS V14.00,2013-07-30 17:19:00,
2013-07-30 13:24:00,84.0,74.8,30.22,SSE,158,0.0,0.0,74,0.00,,---,0.00,VWS V14.00,2013-07-30 17:24:00,
2013-07-30 13:29:00,84.5,75.3,30.21,SW,225,6.9,6.9,74,0.00,,---,0.00,VWS V14.00,2013-07-30 17:29:00,
2013-07-30 13:34:00,84.9,75.3,30.21,SSW,202,0.6,3.5,73,0.00,,---,0.00,VWS V14.00,2013-07-30 17:34:00,
2013-07-30 13:39:00,85.6,76.4,30.21,SE,135,0.0,3.5,74,0.00,,---,0.00,VWS V14.00,2013-07-30 17:39:00,
2013-07-30 13:44:00,85.6,75.5,30.21,West,270,0.0,0.0,72,0.00,,---,0.00,VWS V14.00,2013-07-30 17:44:00,
2013-07-30 13:50:00,85.2,74.7,30.20,West,270,0.0,0.0,71,0.00,,---,0.00,VWS V14.00,2013-07-30 17:50:00,
2013-07-30 13:55:00,84.9,74.4,30.20,SSE,158,0.0,0.0,71,0.00,,---,0.00,VWS V14.00,2013-07-30 17:55:00,
2013-07-30 14:00:00,84.7,74.3,30.20,SSE,158,2.4,3.1,71,0.00,,---,0.00,VWS V14.00,2013-07-30 18:00:00,
2013-07-30 14:05:00,85.1,75.5,30.20,SE,135,0.0,2.2,73,0.00,,---,0.00,VWS V14.00,2013-07-30 18:05:00,
2013-07-30 14:10:00,85.6,75.5,30.20,ESE,112,0.0,2.2,72,0.00,,---,0.00,VWS V14.00,2013-07-30 18:10:00,
2013-07-30 14:15:00,85.1,74.6,30.20,East,90,0.0,4.4,71,0.00,,---,0.00,VWS V14.00,2013-07-30 18:15:00,
2013-07-30 14:20:00,84.3,74.3,30.19,NNW,338,0.0,4.4,72,0.00,,---,0.00,VWS V14.00,2013-07-30 18:20:00,
2013-07-30 14:25:00,84.0,74.0,30.19,SW,225,4.6,4.6,72,0.00,,---,0.00,VWS V14.00,2013-07-30 18:25:00,
2013-07-30 14:30:00,83.4,73.8,30.19,WSW,248,0.0,4.6,73,0.00,,---,0.00,VWS V14.00,2013-07-30 18:30:00,
2013-07-30 14:35:00,82.9,73.8,30.19,WSW,248,0.0,0.0,74,0.00,,---,0.00,VWS V14.00,2013-07-30 18:35:00,
2013-07-30 14:40:00,82.9,73.8,30.19,SW,225,0.0,0.0,74,0.00,,---,0.00,VWS V14.00,2013-07-30 18:40:00,
2013-07-30 14:45:00,83.1,74.4,30.19,North,0,1.3,1.3,75,0.00,,---,0.00,VWS V14.00,2013-07-30 18:45:00,
2013-07-30 14:50:00,83.1,74.0,30.19,South,180,0.0,1.3,74,0.00,,---,0.00,VWS V14.00,2013-07-30 18:50:00,
2013-07-30 14:55:00,83.3,74.2,30.19,SW,225,2.6,2.6,74,0.00,,---,0.00,VWS V14.00,2013-07-30 18:55:00,
2013-07-30 15:00:00,83.3,74.2,30.19,NNW,338,0.0,2.6,74,0.00,,---,0.00,VWS V14.00,2013-07-30 19:00:00,
2013-07-30 15:05:00,83.4,74.2,30.19,ENE,68,0.0,0.0,74,0.00,,---,0.00,VWS V14.00,2013-07-30 19:05:00,
2013-07-30 15:10:00,83.3,74.2,30.19,WNW,292,0.0,0.0,74,0.00,,---,0.00,VWS V14.00,2013-07-30 19:10:00,
2013-07-30 15:15:00,83.3,74.2,30.18,NNE,22,0.0,0.0,74,0.00,,---,0.00,VWS V14.00,2013-07-30 19:15:00,
2013-07-30 15:20:00,82.9,74.2,30.18,North,0,0.0,0.2,75,0.00,,---,0.00,VWS V14.00,2013-07-30 19:20:00,
2013-07-30 15:25:00,82.5,73.8,30.18,SSE,158,0.0,0.0,75,0.00,,---,0.00,VWS V14.00,2013-07-30 19:25:00,
2013-07-30 15:30:00,82.2,73.5,30.18,SW,225,0.0,0.0,75,0.00,,---,0.00,VWS V14.00,2013-07-30 19:30:00,
2013-07-30 15:35:00,81.6,73.3,30.19,SSE,158,0.0,0.0,76,0.00,,---,0.00,VWS V14.00,2013-07-30 19:35:00,
2013-07-30 15:40:00,81.1,72.8,30.18,WSW,248,0.0,0.0,76,0.00,,---,0.00,VWS V14.00,2013-07-30 19:40:00,
2013-07-30 15:45:00,81.1,73.2,30.18,North,0,0.0,0.0,77,0.00,,---,0.00,VWS V14.00,2013-07-30 19:45:00,
2013-07-30 15:50:00,80.9,73.0,30.18,WSW,248,0.0,0.0,77,0.00,,---,0.00,VWS V14.00,2013-07-30 19:50:00,
2013-07-30 15:55:00,80.9,73.0,30.18,SSW,202,0.0,0.0,77,0.00,,---,0.00,VWS V14.00,2013-07-30 19:55:00,
2013-07-30 16:00:00,80.7,73.2,30.18,WSW,248,0.0,0.0,78,0.00,,---,0.00,VWS V14.00,2013-07-30 20:00:00,
2013-07-30 16:05:00,80.7,73.6,30.18,SSW,202,0.0,0.0,79,0.00,,---,0.00,VWS V14.00,2013-07-30 20:05:00,
2013-07-30 16:10:00,80.7,73.2,30.18,West,270,2.0,2.0,78,0.00,,---,0.00,VWS V14.00,2013-07-30 20:10:00,
2013-07-30 16:15:00,80.4,73.3,30.19,SE,135,0.0,0.0,79,0.00,,---,0.00,VWS V14.00,2013-07-30 20:15:00,
2013-07-30 16:20:00,80.4,73.3,30.18,SW,225,0.0,3.3,79,0.00,,---,0.00,VWS V14.00,2013-07-30 20:20:00,
2013-07-30 16:25:00,80.4,73.3,30.18,SSE,158,0.0,0.0,79,0.00,,---,0.00,VWS V14.00,2013-07-30 20:25:00,
2013-07-30 16:30:00,80.7,73.6,30.18,North,0,0.0,0.0,79,0.00,,---,0.00,VWS V14.00,2013-07-30 20:30:00,
2013-07-30 16:35:00,80.7,73.2,30.19,NNW,338,0.0,0.0,78,0.00,,---,0.00,VWS V14.00,2013-07-30 20:35:00,
2013-07-30 16:40:00,80.7,73.6,30.18,West,270,0.0,0.0,79,0.00,,---,0.00,VWS V14.00,2013-07-30 20:40:00,
2013-07-30 16:45:00,80.7,73.6,30.18,WSW,248,0.0,0.0,79,0.00,,---,0.00,VWS V14.00,2013-07-30 20:45:00,
2013-07-30 16:50:00,80.4,73.3,30.18,NNE,22,0.0,0.0,79,0.00,,---,0.00,VWS V14.00,2013-07-30 20:50:00,
2013-07-30 16:55:00,80.2,73.1,30.18,SSE,158,0.0,0.0,79,0.00,,---,0.00,VWS V14.00,2013-07-30 20:55:00,
2013-07-30 17:00:00,79.8,72.7,30.17,ENE,68,0.0,0.0,79,0.00,,---,0.00,VWS V14.00,2013-07-30 21:00:00,
2013-07-30 17:05:00,79.7,72.6,30.18,SW,225,0.0,0.6,79,0.00,,---,0.00,VWS V14.00,2013-07-30 21:05:00,
2013-07-30 17:10:00,79.5,72.8,30.18,SW,225,0.6,0.6,80,0.00,,---,0.00,VWS V14.00,2013-07-30 21:10:00,
2013-07-30 17:15:00,79.5,72.8,30.18,SSW,202,0.0,0.6,80,0.00,,---,0.00,VWS V14.00,2013-07-30 21:15:00,
2013-07-30 17:20:00,79.3,72.6,30.18,NW,315,0.0,0.0,80,0.00,,---,0.00,VWS V14.00,2013-07-30 21:20:00,
2013-07-30 17:25:00,78.9,72.6,30.18,NE,45,0.0,0.0,81,0.00,,---,0.00,VWS V14.00,2013-07-30 21:25:00,
2013-07-30 17:30:00,78.6,72.3,30.18,North,0,0.0,0.0,81,0.00,,---,0.00,VWS V14.00,2013-07-30 21:30:00,
2013-07-30 17:35:00,78.6,72.7,30.18,SSE,158,0.0,0.0,82,0.00,,---,0.00,VWS V14.00,2013-07-30 21:35:00,
2013-07-30 17:40:00,79.1,73.1,30.18,West,270,0.0,0.0,82,0.00,,---,0.00,VWS V14.00,2013-07-30 21:40:00,
2013-07-30 17:45:00,79.3,73.3,30.18,WSW,248,0.0,0.0,82,0.00,,---,0.00,VWS V14.00,2013-07-30 21:45:00,
2013-07-30 17:50:00,79.5,73.2,30.18,SSE,158,0.0,0.0,81,0.00,,---,0.00,VWS V14.00,2013-07-30 21:50:00,
2013-07-30 17:55:00,79.5,73.2,30.18,NE,45,0.0,1.7,81,0.00,,---,0.00,VWS V14.00,2013-07-30 21:55:00,
2013-07-30 17:56:00,79.5,73.2,30.18,NE,45,0.0,1.7,81,0.00,,---,0.00,VWS V14.00,2013-07-30 21:56:00,
2013-07-30 18:01:00,79.3,73.0,30.18,NNW,338,0.0,0.0,81,0.00,,---,0.00,VWS V14.00,2013-07-30 22:01:00,
2013-07-30 18:06:00,79.3,73.3,30.18,West,270,1.7,1.7,82,0.00,,---,0.00,VWS V14.00,2013-07-30 22:06:00,
2013-07-30 18:11:00,79.3,73.3,30.18,SW,225,0.0,0.0,82,0.00,,---,0.00,VWS V14.00,2013-07-30 22:11:00,
2013-07-30 18:16:00,78.9,72.9,30.18,South,180,0.0,0.0,82,0.00,,---,0.00,VWS V14.00,2013-07-30 22:16:00,
2013-07-30 18:21:00,78.8,72.8,30.18,SW,225,0.0,0.0,82,0.00,,---,0.00,VWS V14.00,2013-07-30 22:21:00,
2013-07-30 18:26:00,78.4,72.4,30.18,ENE,68,0.0,0.0,82,0.00,,---,0.00,VWS V14.00,2013-07-30 22:26:00,
2013-07-30 18:32:00,77.9,72.3,30.18,WSW,248,0.0,0.0,83,0.00,,---,0.00,VWS V14.00,2013-07-30 22:32:00,
2013-07-30 18:37:00,77.9,72.3,30.17,WSW,248,0.0,0.0,83,0.00,,---,0.00,VWS V14.00,2013-07-30 22:37:00,
2013-07-30 18:42:00,77.7,72.1,30.18,WSW,248,0.0,0.0,83,0.00,,---,0.00,VWS V14.00,2013-07-30 22:42:00,
2013-07-30 18:47:00,77.7,72.5,30.18,WSW,248,0.0,0.0,84,0.00,,---,0.00,VWS V14.00,2013-07-30 22:47:00,
2013-07-30 18:52:00,77.5,72.3,30.17,WSW,248,0.0,0.0,84,0.00,,---,0.00,VWS V14.00,2013-07-30 22:52:00,
2013-07-30 18:57:00,77.5,72.3,30.17,WSW,248,0.0,0.0,84,0.00,,---,0.00,VWS V14.00,2013-07-30 22:57:00,
2013-07-30 19:02:00,77.3,72.1,30.17,WSW,248,0.0,0.0,84,0.00,,---,0.00,VWS V14.00,2013-07-30 23:02:00,
2013-07-30 19:07:00,77.0,71.8,30.17,WSW,248,0.0,0.0,84,0.00,,---,0.00,VWS V14.00,2013-07-30 23:07:00,
2013-07-30 19:12:00,76.8,71.9,30.17,WSW,248,0.0,0.0,85,0.00,,---,0.00,VWS V14.00,2013-07-30 23:12:00,
2013-07-30 19:17:00,76.6,71.8,30.17,WSW,248,0.0,0.0,85,0.00,,---,0.00,VWS V14.00,2013-07-30 23:17:00,
2013-07-30 19:22:00,76.2,71.4,30.18,SSW,202,0.0,0.0,85,0.00,,---,0.00,VWS V14.00,2013-07-30 23:22:00,
2013-07-30 19:27:00,76.1,71.3,30.17,SSW,202,0.0,0.0,85,0.00,,---,0.00,VWS V14.00,2013-07-30 23:27:00,
2013-07-30 19:32:00,75.9,71.1,30.18,SW,225,0.0,0.0,85,0.00,,---,0.00,VWS V14.00,2013-07-30 23:32:00,
2013-07-30 19:37:00,75.7,71.2,30.18,South,180,0.0,0.0,86,0.00,,---,0.00,VWS V14.00,2013-07-30 23:37:00,
2013-07-30 19:42:00,75.5,71.0,30.18,SW,225,0.0,0.0,86,0.00,,---,0.00,VWS V14.00,2013-07-30 23:42:00,
2013-07-30 19:47:00,75.3,70.8,30.18,SW,225,0.0,0.0,86,0.00,,---,0.00,VWS V14.00,2013-07-30 23:47:00,
2013-07-30 19:52:00,75.0,70.5,30.18,SW,225,0.0,0.0,86,0.00,,---,0.00,VWS V14.00,2013-07-30 23:52:00,
2013-07-30 19:57:00,75.0,70.9,30.17,SW,225,0.0,0.0,87,0.00,,---,0.00,VWS V14.00,2013-07-30 23:57:00,
2013-07-30 20:02:00,74.8,70.7,30.17,SW,225,0.0,0.0,87,0.00,,---,0.00,VWS V14.00,2013-07-31 00:02:00,
2013-07-30 20:07:00,74.6,70.5,30.17,SW,225,0.0,0.0,87,0.00,,---,0.00,VWS V14.00,2013-07-31 00:07:00,
2013-07-30 20:12:00,74.4,70.6,30.18,SW,225,0.0,0.0,88,0.00,,---,0.00,VWS V14.00,2013-07-31 00:12:00,
2013-07-30 20:17:00,74.1,70.3,30.18,SW,225,0.0,0.0,88,0.00,,---,0.00,VWS V14.00,2013-07-31 00:17:00,
2013-07-30 20:22:00,73.9,70.1,30.17,SW,225,0.0,0.0,88,0.00,,---,0.00,VWS V14.00,2013-07-31 00:22:00,
2013-07-30 20:27:00,73.2,69.8,30.18,SW,225,0.0,0.0,89,0.00,,---,0.00,VWS V14.00,2013-07-31 00:27:00,
2013-07-30 20:32:00,73.0,69.6,30.18,SW,225,0.0,0.0,89,0.00,,---,0.00,VWS V14.00,2013-07-31 00:32:00,
2013-07-30 20:37:00,72.6,69.5,30.18,SW,225,0.0,0.0,90,0.00,,---,0.00,VWS V14.00,2013-07-31 00:37:00,
2013-07-30 20:42:00,72.5,69.4,30.18,SW,225,0.0,0.0,90,0.00,,---,0.00,VWS V14.00,2013-07-31 00:42:00,
2013-07-30 20:47:00,72.1,69.3,30.18,SW,225,0.0,0.0,91,0.00,,---,0.00,VWS V14.00,2013-07-31 00:47:00,
2013-07-30 20:53:00,71.9,69.1,30.18,SW,225,0.0,0.0,91,0.00,,---,0.00,VWS V14.00,2013-07-31 00:53:00,
2013-07-30 20:58:00,71.6,69.2,30.18,SW,225,0.0,0.0,92,0.00,,---,0.00,VWS V14.00,2013-07-31 00:58:00,
2013-07-30 21:03:00,71.4,68.6,30.18,SW,225,0.0,0.0,91,0.00,,---,0.00,VWS V14.00,2013-07-31 01:03:00,
2013-07-30 21:08:00,71.2,68.8,30.18,SW,225,0.0,0.0,92,0.00,,---,0.00,VWS V14.00,2013-07-31 01:08:00,
2013-07-30 21:13:00,71.2,68.8,30.18,SW,225,0.0,0.0,92,0.00,,---,0.00,VWS V14.00,2013-07-31 01:13:00,
2013-07-30 21:18:00,70.8,68.7,30.18,SW,225,0.0,0.0,93,0.00,,---,0.00,VWS V14.00,2013-07-31 01:18:00,
2013-07-30 21:23:00,70.7,68.6,30.18,SW,225,0.0,0.0,93,0.00,,---,0.00,VWS V14.00,2013-07-31 01:23:00,
2013-07-30 21:28:00,70.5,68.4,30.19,SW,225,0.0,0.0,93,0.00,,---,0.00,VWS V14.00,2013-07-31 01:28:00,
2013-07-30 21:33:00,70.3,68.2,30.19,SW,225,0.0,0.0,93,0.00,,---,0.00,VWS V14.00,2013-07-31 01:33:00,
2013-07-30 21:38:00,70.3,68.5,30.19,SW,225,0.0,0.0,94,0.00,,---,0.00,VWS V14.00,2013-07-31 01:38:00,
2013-07-30 21:43:00,70.1,68.3,30.19,SW,225,0.0,0.0,94,0.00,,---,0.00,VWS V14.00,2013-07-31 01:43:00,
2013-07-30 21:48:00,69.9,68.4,30.19,SW,225,0.0,0.0,95,0.00,,---,0.00,VWS V14.00,2013-07-31 01:48:00,
2013-07-30 21:53:00,69.9,68.4,30.20,SW,225,0.0,0.0,95,0.00,,---,0.00,VWS V14.00,2013-07-31 01:53:00,
2013-07-30 21:58:00,69.9,68.4,30.20,SW,225,0.0,0.0,95,0.00,,---,0.00,VWS V14.00,2013-07-31 01:58:00,
2013-07-30 22:03:00,69.9,68.4,30.20,SW,225,0.0,0.0,95,0.00,,---,0.00,VWS V14.00,2013-07-31 02:03:00,
2013-07-30 22:08:00,69.8,68.3,30.20,SW,225,0.0,0.0,95,0.00,,---,0.00,VWS V14.00,2013-07-31 02:08:00,
2013-07-30 22:13:00,69.6,68.1,30.20,SW,225,0.0,0.0,95,0.00,,---,0.00,VWS V14.00,2013-07-31 02:13:00,
2013-07-30 22:18:00,69.6,68.1,30.20,SW,225,0.0,0.0,95,0.00,,---,0.00,VWS V14.00,2013-07-31 02:18:00,
2013-07-30 22:23:00,69.6,68.4,30.20,SW,225,0.0,0.0,96,0.00,,---,0.00,VWS V14.00,2013-07-31 02:23:00,
2013-07-30 22:28:00,69.6,68.4,30.20,SW,225,0.0,0.0,96,0.00,,---,0.00,VWS V14.00,2013-07-31 02:28:00,
2013-07-30 22:33:00,69.4,68.2,30.20,SW,225,0.0,0.0,96,0.00,,---,0.00,VWS V14.00,2013-07-31 02:33:00,
2013-07-30 22:38:00,69.4,68.2,30.20,SW,225,0.0,0.0,96,0.00,,---,0.00,VWS V14.00,2013-07-31 02:38:00,
2013-07-30 22:43:00,69.4,68.2,30.20,SW,225,0.0,0.0,96,0.00,,---,0.00,VWS V14.00,2013-07-31 02:43:00,
2013-07-30 22:48:00,69.4,68.5,30.21,SW,225,0.0,0.0,97,0.00,,---,0.00,VWS V14.00,2013-07-31 02:48:00,
2013-07-30 22:53:00,69.2,68.3,30.20,SW,225,0.0,0.0,97,0.00,,---,0.00,VWS V14.00,2013-07-31 02:53:00,
2013-07-30 22:58:00,69.2,68.3,30.19,SW,225,0.0,0.0,97,0.00,,---,0.00,VWS V14.00,2013-07-31 02:58:00,
2013-07-30 23:03:00,69.0,68.1,30.20,SW,225,0.0,0.0,97,0.00,,---,0.00,VWS V14.00,2013-07-31 03:03:00,
2013-07-30 23:08:00,69.0,68.1,30.20,SW,225,0.0,0.0,97,0.00,,---,0.00,VWS V14.00,2013-07-31 03:08:00,
2013-07-30 23:13:00,69.0,68.1,30.20,SW,225,0.0,0.0,97,0.00,,---,0.00,VWS V14.00,2013-07-31 03:13:00,
2013-07-30 23:18:00,69.0,68.1,30.20,SW,225,0.0,0.0,97,0.00,,---,0.00,VWS V14.00,2013-07-31 03:18:00,
2013-07-30 23:23:00,69.0,68.1,30.20,SW,225,0.0,0.0,97,0.00,,---,0.00,VWS V14.00,2013-07-31 03:23:00,
2013-07-30 23:28:00,69.0,68.1,30.20,SW,225,0.0,0.0,97,0.00,,---,0.00,VWS V14.00,2013-07-31 03:28:00,
2013-07-30 23:33:00,68.9,68.3,30.20,SW,225,0.0,0.0,98,0.00,,---,0.00,VWS V14.00,2013-07-31 03:33:00,
2013-07-30 23:38:00,68.9,68.3,30.20,SW,225,0.0,0.0,98,0.00,,---,0.00,VWS V14.00,2013-07-31 03:38:00,
2013-07-30 23:43:00,68.9,68.3,30.20,SW,225,0.0,0.0,98,0.00,,---,0.00,VWS V14.00,2013-07-31 03:43:00,
2013-07-30 23:48:00,68.9,68.3,30.20,SW,225,0.0,0.0,98,0.00,,---,0.00,VWS V14.00,2013-07-31 03:48:00,
2013-07-30 23:53:00,68.9,68.3,30.20,SW,225,0.0,0.0,98,0.00,,---,0.00,VWS V14.00,2013-07-31 03:53:00,
2013-07-30 23:59:00,68.7,68.1,30.20,SW,225,0.0,0.0,98,0.00,,---,0.00,VWS V14.00,2013-07-31 03:59:00,